Year,Month,Day,Hour,Minute,Value (Times are PST for insolation in W/m^2)
2011,04,28,00,00,0.00
2011,04,28,00,01,0.00
2011,04,28,00,02,0.00
2011,04,28,00,03,0.00
2011,04,28,00,04,0.00
2011,04,28,00,05,0.00
2011,04,28,00,06,0.00
2011,04,28,00,07,0.00
2011,04,28,00,08,0.00
2011,04,28,00,09,0.00
2011,04,28,00,10,0.00
2011,04,28,00,11,0.00
2011,04,28,00,12,0.00
2011,04,28,00,13,0.00
2011,04,28,00,14,0.00
2011,04,28,00,15,0.00
2011,04,28,00,16,0.00
2011,04,28,00,17,0.00
2011,04,28,00,18,0.00
2011,04,28,00,19,0.00
2011,04,28,00,20,0.00
2011,04,28,00,21,0.00
2011,04,28,00,22,0.00
2011,04,28,00,23,0.00
2011,04,28,00,24,0.00
2011,04,28,00,25,0.00
2011,04,28,00,26,0.00
2011,04,28,00,27,0.00
2011,04,28,00,28,0.00
2011,04,28,00,29,0.00
2011,04,28,00,30,0.00
2011,04,28,00,31,0.00
2011,04,28,00,32,0.00
2011,04,28,00,33,0.00
2011,04,28,00,34,0.00
2011,04,28,00,35,0.00
2011,04,28,00,36,0.00
2011,04,28,00,37,0.00
2011,04,28,00,38,0.00
2011,04,28,00,39,0.00
2011,04,28,00,40,0.00
2011,04,28,00,41,0.00
2011,04,28,00,42,0.00
2011,04,28,00,43,0.00
2011,04,28,00,44,0.00
2011,04,28,00,45,0.00
2011,04,28,00,46,0.00
2011,04,28,00,47,0.00
2011,04,28,00,48,0.00
2011,04,28,00,49,0.00
2011,04,28,00,50,0.00
2011,04,28,00,51,0.00
2011,04,28,00,52,0.00
2011,04,28,00,53,0.00
2011,04,28,00,54,0.00
2011,04,28,00,55,0.00
2011,04,28,00,56,0.00
2011,04,28,00,57,0.00
2011,04,28,00,58,0.00
2011,04,28,00,59,0.00
2011,04,28,01,00,0.00
2011,04,28,01,01,0.00
2011,04,28,01,02,0.00
2011,04,28,01,03,0.00
2011,04,28,01,04,0.00
2011,04,28,01,05,0.00
2011,04,28,01,06,0.00
2011,04,28,01,07,0.00
2011,04,28,01,08,0.00
2011,04,28,01,09,0.00
2011,04,28,01,10,0.00
2011,04,28,01,11,0.00
2011,04,28,01,12,0.00
2011,04,28,01,13,0.00
2011,04,28,01,14,0.00
2011,04,28,01,15,0.00
2011,04,28,01,16,0.00
2011,04,28,01,17,0.00
2011,04,28,01,18,0.00
2011,04,28,01,19,0.00
2011,04,28,01,20,0.00
2011,04,28,01,21,0.00
2011,04,28,01,22,0.00
2011,04,28,01,23,0.00
2011,04,28,01,24,0.00
2011,04,28,01,25,0.00
2011,04,28,01,26,0.00
2011,04,28,01,27,0.00
2011,04,28,01,28,0.00
2011,04,28,01,29,0.00
2011,04,28,01,30,0.00
2011,04,28,01,31,0.00
2011,04,28,01,32,0.00
2011,04,28,01,33,0.00
2011,04,28,01,34,0.00
2011,04,28,01,35,0.00
2011,04,28,01,36,0.00
2011,04,28,01,37,0.00
2011,04,28,01,38,0.00
2011,04,28,01,39,0.00
2011,04,28,01,40,0.00
2011,04,28,01,41,0.00
2011,04,28,01,42,0.00
2011,04,28,01,43,0.00
2011,04,28,01,44,0.00
2011,04,28,01,45,0.00
2011,04,28,01,46,0.00
2011,04,28,01,47,0.00
2011,04,28,01,48,0.00
2011,04,28,01,49,0.00
2011,04,28,01,50,0.00
2011,04,28,01,51,0.00
2011,04,28,01,52,0.00
2011,04,28,01,53,0.00
2011,04,28,01,54,0.00
2011,04,28,01,55,0.00
2011,04,28,01,56,0.00
2011,04,28,01,57,0.00
2011,04,28,01,58,0.00
2011,04,28,01,59,0.00
2011,04,28,02,00,0.00
2011,04,28,02,01,0.00
2011,04,28,02,02,0.00
2011,04,28,02,03,0.00
2011,04,28,02,04,0.00
2011,04,28,02,05,0.00
2011,04,28,02,06,0.00
2011,04,28,02,07,0.00
2011,04,28,02,08,0.00
2011,04,28,02,09,0.00
2011,04,28,02,10,0.00
2011,04,28,02,11,0.00
2011,04,28,02,12,0.00
2011,04,28,02,13,0.00
2011,04,28,02,14,0.00
2011,04,28,02,15,0.00
2011,04,28,02,16,0.00
2011,04,28,02,17,0.00
2011,04,28,02,18,0.00
2011,04,28,02,19,0.00
2011,04,28,02,20,0.00
2011,04,28,02,21,0.00
2011,04,28,02,22,0.00
2011,04,28,02,23,0.00
2011,04,28,02,24,0.00
2011,04,28,02,25,0.00
2011,04,28,02,26,0.00
2011,04,28,02,27,0.00
2011,04,28,02,28,0.00
2011,04,28,02,29,0.00
2011,04,28,02,30,0.00
2011,04,28,02,31,0.00
2011,04,28,02,32,0.00
2011,04,28,02,33,0.00
2011,04,28,02,34,0.00
2011,04,28,02,35,0.00
2011,04,28,02,36,0.00
2011,04,28,02,37,0.00
2011,04,28,02,38,0.00
2011,04,28,02,39,0.00
2011,04,28,02,40,0.00
2011,04,28,02,41,0.00
2011,04,28,02,42,0.00
2011,04,28,02,43,0.00
2011,04,28,02,44,0.00
2011,04,28,02,45,0.00
2011,04,28,02,46,0.00
2011,04,28,02,47,0.00
2011,04,28,02,48,0.00
2011,04,28,02,49,0.00
2011,04,28,02,50,0.00
2011,04,28,02,51,0.00
2011,04,28,02,52,0.00
2011,04,28,02,53,0.00
2011,04,28,02,54,0.00
2011,04,28,02,55,0.00
2011,04,28,02,56,0.00
2011,04,28,02,57,0.00
2011,04,28,02,58,0.00
2011,04,28,02,59,0.00
2011,04,28,03,00,0.00
2011,04,28,03,01,0.00
2011,04,28,03,02,0.00
2011,04,28,03,03,0.00
2011,04,28,03,04,0.00
2011,04,28,03,05,0.00
2011,04,28,03,06,0.00
2011,04,28,03,07,0.00
2011,04,28,03,08,0.00
2011,04,28,03,09,0.00
2011,04,28,03,10,0.00
2011,04,28,03,11,0.00
2011,04,28,03,12,0.00
2011,04,28,03,13,0.00
2011,04,28,03,14,0.00
2011,04,28,03,15,0.00
2011,04,28,03,16,0.00
2011,04,28,03,17,0.00
2011,04,28,03,18,0.00
2011,04,28,03,19,0.00
2011,04,28,03,20,0.00
2011,04,28,03,21,0.00
2011,04,28,03,22,0.00
2011,04,28,03,23,0.00
2011,04,28,03,24,0.00
2011,04,28,03,25,0.00
2011,04,28,03,26,0.00
2011,04,28,03,27,0.00
2011,04,28,03,28,0.00
2011,04,28,03,29,0.00
2011,04,28,03,30,0.00
2011,04,28,03,31,0.00
2011,04,28,03,32,0.00
2011,04,28,03,33,0.00
2011,04,28,03,34,0.00
2011,04,28,03,35,0.00
2011,04,28,03,36,0.00
2011,04,28,03,37,0.00
2011,04,28,03,38,0.00
2011,04,28,03,39,0.00
2011,04,28,03,40,0.00
2011,04,28,03,41,0.00
2011,04,28,03,42,0.00
2011,04,28,03,43,0.00
2011,04,28,03,44,0.00
2011,04,28,03,45,0.00
2011,04,28,03,46,0.00
2011,04,28,03,47,0.00
2011,04,28,03,48,0.00
2011,04,28,03,49,0.00
2011,04,28,03,50,0.00
2011,04,28,03,51,0.00
2011,04,28,03,52,0.00
2011,04,28,03,53,0.00
2011,04,28,03,54,0.00
2011,04,28,03,55,0.00
2011,04,28,03,56,0.00
2011,04,28,03,57,0.00
2011,04,28,03,58,0.00
2011,04,28,03,59,0.00
2011,04,28,04,00,0.00
2011,04,28,04,01,0.00
2011,04,28,04,02,0.00
2011,04,28,04,03,0.00
2011,04,28,04,06,0.00
2011,04,28,04,07,0.00
2011,04,28,04,10,0.00
2011,04,28,04,12,0.00
2011,04,28,04,13,0.00
2011,04,28,04,14,0.00
2011,04,28,04,15,0.00
2011,04,28,04,16,0.00
2011,04,28,04,17,0.00
2011,04,28,04,18,0.00
2011,04,28,04,19,0.00
2011,04,28,04,20,0.00
2011,04,28,04,21,0.00
2011,04,28,04,22,0.00
2011,04,28,04,23,0.00
2011,04,28,04,24,0.00
2011,04,28,04,25,0.00
2011,04,28,04,26,0.00
2011,04,28,04,27,0.00
2011,04,28,04,28,0.00
2011,04,28,04,29,0.00
2011,04,28,04,30,0.00
2011,04,28,04,31,0.00
2011,04,28,04,32,0.00
2011,04,28,04,33,0.00
2011,04,28,04,34,0.00
2011,04,28,04,35,0.00
2011,04,28,04,36,0.00
2011,04,28,04,37,0.00
2011,04,28,04,38,0.00
2011,04,28,04,39,0.00
2011,04,28,04,40,0.00
2011,04,28,04,41,0.00
2011,04,28,04,42,0.00
2011,04,28,04,43,0.00
2011,04,28,04,44,0.00
2011,04,28,04,45,0.00
2011,04,28,04,46,0.00
2011,04,28,04,47,0.00
2011,04,28,04,48,0.00
2011,04,28,04,49,0.00
2011,04,28,04,50,0.00
2011,04,28,04,51,0.00
2011,04,28,04,52,0.00
2011,04,28,04,53,0.00
2011,04,28,04,54,0.00
2011,04,28,04,55,0.00
2011,04,28,04,56,0.00
2011,04,28,04,57,0.00
2011,04,28,04,58,0.00
2011,04,28,04,59,0.00
2011,04,28,05,00,0.00
2011,04,28,05,01,0.00
2011,04,28,05,02,0.00
2011,04,28,05,03,0.00
2011,04,28,05,04,0.00
2011,04,28,05,05,0.00
2011,04,28,05,06,0.00
2011,04,28,05,07,0.00
2011,04,28,05,08,0.00
2011,04,28,05,09,0.00
2011,04,28,05,10,0.00
2011,04,28,05,11,0.00
2011,04,28,05,12,0.00
2011,04,28,05,13,0.00
2011,04,28,05,14,0.00
2011,04,28,05,15,0.00
2011,04,28,05,16,0.00
2011,04,28,05,17,0.00
2011,04,28,05,18,0.00
2011,04,28,05,19,0.00
2011,04,28,05,20,0.00
2011,04,28,05,21,0.00
2011,04,28,05,22,0.00
2011,04,28,05,23,0.00
2011,04,28,05,24,0.00
2011,04,28,05,25,0.00
2011,04,28,05,26,0.00
2011,04,28,05,27,0.00
2011,04,28,05,28,0.00
2011,04,28,05,29,0.00
2011,04,28,05,30,0.00
2011,04,28,05,31,0.00
2011,04,28,05,32,0.00
2011,04,28,05,33,0.00
2011,04,28,05,34,0.00
2011,04,28,05,35,0.00
2011,04,28,05,36,0.00
2011,04,28,05,37,0.00
2011,04,28,05,38,0.00
2011,04,28,05,39,0.00
2011,04,28,05,40,0.00
2011,04,28,05,41,0.00
2011,04,28,05,42,0.00
2011,04,28,05,43,0.00
2011,04,28,05,44,0.00
2011,04,28,05,45,0.00
2011,04,28,05,46,0.00
2011,04,28,05,47,0.00
2011,04,28,05,48,0.00
2011,04,28,05,49,0.00
2011,04,28,05,50,0.00
2011,04,28,05,51,0.00
2011,04,28,05,52,0.00
2011,04,28,05,53,0.00
2011,04,28,05,54,0.00
2011,04,28,05,55,0.00
2011,04,28,05,56,0.00
2011,04,28,05,57,0.00
2011,04,28,05,58,0.00
2011,04,28,05,59,0.00
2011,04,28,06,00,0.00
2011,04,28,06,01,0.00
2011,04,28,06,02,0.00
2011,04,28,06,03,0.00
2011,04,28,06,04,0.00
2011,04,28,06,05,0.00
2011,04,28,06,06,0.00
2011,04,28,06,07,0.00
2011,04,28,06,08,0.00
2011,04,28,06,09,0.00
2011,04,28,06,10,0.00
2011,04,28,06,11,0.00
2011,04,28,06,12,1.40
2011,04,28,06,13,5.00
2011,04,28,06,14,5.00
2011,04,28,06,15,5.00
2011,04,28,06,16,5.00
2011,04,28,06,17,5.00
2011,04,28,06,18,5.00
2011,04,28,06,19,5.00
2011,04,28,06,20,5.00
2011,04,28,06,21,6.30
2011,04,28,06,22,9.00
2011,04,28,06,23,9.00
2011,04,28,06,24,9.00
2011,04,28,06,25,9.00
2011,04,28,06,26,10.80
2011,04,28,06,27,11.10
2011,04,28,06,28,12.30
2011,04,28,06,29,14.00
2011,04,28,06,30,14.00
2011,04,28,06,31,13.10
2011,04,28,06,32,12.00
2011,04,28,06,33,12.00
2011,04,28,06,34,11.20
2011,04,28,06,35,11.90
2011,04,28,06,36,14.20
2011,04,28,06,37,16.30
2011,04,28,06,38,18.00
2011,04,28,06,39,18.40
2011,04,28,06,40,20.10
2011,04,28,06,41,22.40
2011,04,28,06,42,23.00
2011,04,28,06,43,23.00
2011,04,28,06,44,24.80
2011,04,28,06,45,26.20
2011,04,28,06,46,28.00
2011,04,28,06,47,27.30
2011,04,28,06,48,26.00
2011,04,28,06,49,26.00
2011,04,28,06,50,26.00
2011,04,28,06,51,25.20
2011,04,28,06,52,23.10
2011,04,28,06,53,21.10
2011,04,28,06,54,21.30
2011,04,28,06,55,23.80
2011,04,28,06,56,28.30
2011,04,28,06,57,33.60
2011,04,28,06,58,37.40
2011,04,28,06,59,39.70
2011,04,28,07,00,41.70
2011,04,28,07,01,42.00
2011,04,28,07,02,44.00
2011,04,28,07,03,44.00
2011,04,28,07,04,44.00
2011,04,28,07,05,44.00
2011,04,28,07,06,45.20
2011,04,28,07,07,46.00
2011,04,28,07,08,43.10
2011,04,28,07,09,39.30
2011,04,28,07,10,37.20
2011,04,28,07,11,37.50
2011,04,28,07,12,40.90
2011,04,28,07,13,45.20
2011,04,28,07,14,47.90
2011,04,28,07,15,50.20
2011,04,28,07,16,51.00
2011,04,28,07,17,51.00
2011,04,28,07,18,51.00
2011,04,28,07,19,49.00
2011,04,28,07,20,49.80
2011,04,28,07,21,52.10
2011,04,28,07,22,47.70
2011,04,28,07,23,51.00
2011,04,28,07,24,51.70
2011,04,28,07,25,52.40
2011,04,28,07,26,53.00
2011,04,28,07,27,53.90
2011,04,28,07,28,53.00
2011,04,28,07,29,53.00
2011,04,28,07,30,53.40
2011,04,28,07,31,54.00
2011,04,28,07,32,55.20
2011,04,28,07,33,56.00
2011,04,28,07,34,56.00
2011,04,28,07,35,53.20
2011,04,28,07,36,53.00
2011,04,28,07,37,54.00
2011,04,28,07,38,54.00
2011,04,28,07,39,54.00
2011,04,28,07,40,55.90
2011,04,28,07,41,60.50
2011,04,28,07,42,62.70
2011,04,28,07,43,67.50
2011,04,28,07,44,71.80
2011,04,28,07,45,74.30
2011,04,28,07,46,77.00
2011,04,28,07,47,77.00
2011,04,28,07,48,77.00
2011,04,28,07,49,77.00
2011,04,28,07,50,77.00
2011,04,28,07,51,77.00
2011,04,28,07,52,78.70
2011,04,28,07,53,76.90
2011,04,28,07,54,76.20
2011,04,28,07,55,78.70
2011,04,28,07,56,85.70
2011,04,28,07,57,95.40
2011,04,28,07,58,103.70
2011,04,28,07,59,106.40
2011,04,28,08,00,105.30
2011,04,28,08,01,102.20
2011,04,28,08,02,102.60
2011,04,28,08,03,107.30
2011,04,28,08,04,109.60
2011,04,28,08,05,110.20
2011,04,28,08,06,107.90
2011,04,28,08,07,109.50
2011,04,28,08,08,112.60
2011,04,28,08,09,108.10
2011,04,28,08,10,104.80
2011,04,28,08,11,102.20
2011,04,28,08,12,107.00
2011,04,28,08,13,117.50
2011,04,28,08,14,117.20
2011,04,28,08,15,113.60
2011,04,28,08,16,114.00
2011,04,28,08,17,128.00
2011,04,28,08,18,145.60
2011,04,28,08,19,156.50
2011,04,28,08,20,187.30
2011,04,28,08,21,164.10
2011,04,28,08,22,165.90
2011,04,28,08,23,162.00
2011,04,28,08,24,165.20
2011,04,28,08,25,168.50
2011,04,28,08,26,178.00
2011,04,28,08,27,154.00
2011,04,28,08,28,113.50
2011,04,28,08,29,74.30
2011,04,28,08,30,56.30
2011,04,28,08,31,50.10
2011,04,28,08,32,43.80
2011,04,28,08,33,44.50
2011,04,28,08,34,49.90
2011,04,28,08,35,53.70
2011,04,28,08,36,55.70
2011,04,28,08,37,49.50
2011,04,28,08,38,42.60
2011,04,28,08,39,38.30
2011,04,28,08,40,38.40
2011,04,28,08,41,48.70
2011,04,28,08,42,65.30
2011,04,28,08,43,81.20
2011,04,28,08,44,83.10
2011,04,28,08,45,76.70
2011,04,28,08,46,88.30
2011,04,28,08,47,116.50
2011,04,28,08,48,142.60
2011,04,28,08,49,149.50
2011,04,28,08,50,145.60
2011,04,28,08,51,137.00
2011,04,28,08,52,134.00
2011,04,28,08,53,148.00
2011,04,28,08,54,172.10
2011,04,28,08,55,179.00
2011,04,28,08,56,181.10
2011,04,28,08,57,186.30
2011,04,28,08,58,181.00
2011,04,28,08,59,178.60
2011,04,28,09,00,175.20
2011,04,28,09,01,178.40
2011,04,28,09,02,171.60
2011,04,28,09,03,176.60
2011,04,28,09,04,180.90
2011,04,28,09,05,182.60
2011,04,28,09,06,181.30
2011,04,28,09,07,182.60
2011,04,28,09,08,168.60
2011,04,28,09,09,155.10
2011,04,28,09,10,148.30
2011,04,28,09,11,148.00
2011,04,28,09,12,148.00
2011,04,28,09,13,146.70
2011,04,28,09,14,142.60
2011,04,28,09,15,141.60
2011,04,28,09,16,141.30
2011,04,28,09,17,151.90
2011,04,28,09,18,171.90
2011,04,28,09,19,187.50
2011,04,28,09,20,191.30
2011,04,28,09,21,186.20
2011,04,28,09,22,176.10
2011,04,28,09,23,167.90
2011,04,28,09,24,179.40
2011,04,28,09,25,191.20
2011,04,28,09,26,194.70
2011,04,28,09,27,193.10
2011,04,28,09,28,210.70
2011,04,28,09,29,235.20
2011,04,28,09,30,250.20
2011,04,28,09,31,289.20
2011,04,28,09,32,332.70
2011,04,28,09,33,310.70
2011,04,28,09,34,285.00
2011,04,28,09,35,285.00
2011,04,28,09,36,285.00
2011,04,28,09,37,285.00
2011,04,28,09,38,285.00
2011,04,28,09,39,298.30
2011,04,28,09,40,354.20
2011,04,28,09,41,375.30
2011,04,28,09,42,359.00
2011,04,28,09,43,359.00
2011,04,28,09,44,710.60
2011,04,28,09,45,752.00
2011,04,28,09,46,752.00
2011,04,28,09,47,752.00
2011,04,28,09,48,752.00
2011,04,28,09,49,752.00
2011,04,28,09,50,757.00
2011,04,28,09,51,757.80
2011,04,28,09,52,775.20
2011,04,28,09,53,785.70
2011,04,28,09,54,748.70
2011,04,28,09,55,432.00
2011,04,28,09,56,510.00
2011,04,28,09,57,639.20
2011,04,28,09,58,599.00
2011,04,28,09,59,599.00
2011,04,28,10,00,517.70
2011,04,28,10,01,496.00
2011,04,28,10,02,485.40
2011,04,28,10,03,332.20
2011,04,28,10,04,413.00
2011,04,28,10,05,337.60
2011,04,28,10,06,227.00
2011,04,28,10,07,225.70
2011,04,28,10,08,250.80
2011,04,28,10,09,278.90
2011,04,28,10,10,274.50
2011,04,28,10,11,254.90
2011,04,28,10,12,272.10
2011,04,28,10,13,289.30
2011,04,28,10,14,314.00
2011,04,28,10,15,324.00
2011,04,28,10,16,341.40
2011,04,28,10,17,379.30
2011,04,28,10,18,423.60
2011,04,28,10,19,412.10
2011,04,28,10,20,392.70
2011,04,28,10,21,320.50
2011,04,28,10,22,308.00
2011,04,28,10,23,308.00
2011,04,28,10,24,648.40
2011,04,28,10,25,927.10
2011,04,28,10,26,948.00
2011,04,28,10,27,951.00
2011,04,28,10,28,951.00
2011,04,28,10,29,951.00
2011,04,28,10,30,851.20
2011,04,28,10,31,635.00
2011,04,28,10,32,635.00
2011,04,28,10,33,873.70
2011,04,28,10,34,994.60
2011,04,28,10,35,942.20
2011,04,28,10,36,911.00
2011,04,28,10,37,911.70
2011,04,28,10,38,905.20
2011,04,28,10,39,889.00
2011,04,28,10,40,889.00
2011,04,28,10,41,907.50
2011,04,28,10,42,891.70
2011,04,28,10,43,933.70
2011,04,28,10,44,922.80
2011,04,28,10,45,924.10
2011,04,28,10,46,923.20
2011,04,28,10,47,941.40
2011,04,28,10,48,906.90
2011,04,28,10,49,873.90
2011,04,28,10,50,860.00
2011,04,28,10,51,847.20
2011,04,28,10,52,845.70
2011,04,28,10,53,806.60
2011,04,28,10,54,846.30
2011,04,28,10,55,838.90
2011,04,28,10,56,834.40
2011,04,28,10,57,833.00
2011,04,28,10,58,832.00
2011,04,28,10,59,834.60
2011,04,28,11,00,845.80
2011,04,28,11,01,839.40
2011,04,28,11,02,837.00
2011,04,28,11,03,836.70
2011,04,28,11,04,833.90
2011,04,28,11,05,830.00
2011,04,28,11,06,830.00
2011,04,28,11,07,831.70
2011,04,28,11,08,831.70
2011,04,28,11,09,834.00
2011,04,28,11,10,836.70
2011,04,28,11,11,844.00
2011,04,28,11,12,844.30
2011,04,28,11,13,846.00
2011,04,28,11,14,847.20
2011,04,28,11,15,842.30
2011,04,28,11,16,844.30
2011,04,28,11,17,847.60
2011,04,28,11,18,850.00
2011,04,28,11,19,852.90
2011,04,28,11,20,858.30
2011,04,28,11,21,853.60
2011,04,28,11,22,844.70
2011,04,28,11,23,887.30
2011,04,28,11,24,908.00
2011,04,28,11,25,891.80
2011,04,28,11,26,886.00
2011,04,28,11,27,886.00
2011,04,28,11,28,886.20
2011,04,28,11,29,891.00
2011,04,28,11,30,890.50
2011,04,28,11,31,888.00
2011,04,28,11,32,888.50
2011,04,28,11,33,893.50
2011,04,28,11,34,899.80
2011,04,28,11,35,912.50
2011,04,28,11,36,931.20
2011,04,28,11,37,912.20
2011,04,28,11,38,915.10
2011,04,28,11,39,921.20
2011,04,28,11,40,925.40
2011,04,28,11,41,927.10
2011,04,28,11,42,930.70
2011,04,28,11,43,932.00
2011,04,28,11,44,932.80
2011,04,28,11,45,937.10
2011,04,28,11,46,939.50
2011,04,28,11,47,943.10
2011,04,28,11,48,947.20
2011,04,28,11,49,949.00
2011,04,28,11,50,950.20
2011,04,28,11,51,954.60
2011,04,28,11,52,957.50
2011,04,28,11,53,964.00
2011,04,28,11,54,965.40
2011,04,28,11,55,969.20
2011,04,28,11,56,971.30
2011,04,28,11,57,974.80
2011,04,28,11,58,956.60
2011,04,28,11,59,956.70
2011,04,28,12,00,975.70
2011,04,28,12,01,988.70
2011,04,28,12,02,983.00
2011,04,28,12,03,979.00
2011,04,28,12,04,949.30
2011,04,28,12,05,948.80
2011,04,28,12,06,939.50
2011,04,28,12,07,952.90
2011,04,28,12,08,985.40
2011,04,28,12,09,1022.90
2011,04,28,12,10,1052.70
2011,04,28,12,11,1095.80
2011,04,28,12,12,1111.00
2011,04,28,12,13,1111.00
2011,04,28,12,14,1132.00
2011,04,28,12,15,1170.50
2011,04,28,12,16,1168.00
2011,04,28,12,17,1160.50
2011,04,28,12,18,1155.80
2011,04,28,12,19,1155.00
2011,04,28,12,20,1155.00
2011,04,28,12,21,1126.20
2011,04,28,12,22,1002.70
2011,04,28,12,23,981.30
2011,04,28,12,24,961.20
2011,04,28,12,25,925.70
2011,04,28,12,26,960.30
2011,04,28,12,27,1019.60
2011,04,28,12,28,997.00
2011,04,28,12,29,984.10
2011,04,28,12,30,996.60
2011,04,28,12,31,1016.90
2011,04,28,12,32,1006.60
2011,04,28,12,33,926.50
2011,04,28,12,34,922.30
2011,04,28,12,35,923.20
2011,04,28,12,36,850.10
2011,04,28,12,37,854.30
2011,04,28,12,38,933.00
2011,04,28,12,39,933.60
2011,04,28,12,40,919.40
2011,04,28,12,41,914.70
2011,04,28,12,42,923.60
2011,04,28,12,43,953.70
2011,04,28,12,44,912.20
2011,04,28,12,45,855.20
2011,04,28,12,46,831.30
2011,04,28,12,47,794.70
2011,04,28,12,48,780.00
2011,04,28,12,49,673.40
2011,04,28,12,50,559.40
2011,04,28,12,51,534.20
2011,04,28,12,52,505.20
2011,04,28,12,53,497.80
2011,04,28,12,54,508.70
2011,04,28,12,55,728.50
2011,04,28,12,56,781.20
2011,04,28,12,57,796.40
2011,04,28,12,58,810.70
2011,04,28,12,59,818.30
2011,04,28,13,00,813.70
2011,04,28,13,01,841.50
2011,04,28,13,02,782.00
2011,04,28,13,03,782.00
2011,04,28,13,04,783.50
2011,04,28,13,05,791.20
2011,04,28,13,06,795.00
2011,04,28,13,07,746.60
2011,04,28,13,08,691.40
2011,04,28,13,09,679.40
2011,04,28,13,10,729.00
2011,04,28,13,11,711.40
2011,04,28,13,12,734.90
2011,04,28,13,13,706.00
2011,04,28,13,14,694.10
2011,04,28,13,15,692.70
2011,04,28,13,16,678.60
2011,04,28,13,17,659.40
2011,04,28,13,18,694.30
2011,04,28,13,19,707.80
2011,04,28,13,20,711.20
2011,04,28,13,21,729.50
2011,04,28,13,22,714.80
2011,04,28,13,23,705.60
2011,04,28,13,24,725.70
2011,04,28,13,25,750.60
2011,04,28,13,26,773.40
2011,04,28,13,27,730.50
2011,04,28,13,28,748.20
2011,04,28,13,29,710.40
2011,04,28,13,30,698.00
2011,04,28,13,31,771.30
2011,04,28,13,32,788.20
2011,04,28,13,33,761.10
2011,04,28,13,34,770.30
2011,04,28,13,35,836.10
2011,04,28,13,36,822.60
2011,04,28,13,37,839.80
2011,04,28,13,38,847.50
2011,04,28,13,39,892.50
2011,04,28,13,40,938.30
2011,04,28,13,41,933.80
2011,04,28,13,42,935.20
2011,04,28,13,43,956.30
2011,04,28,13,44,976.30
2011,04,28,13,45,982.40
2011,04,28,13,46,984.00
2011,04,28,13,47,984.40
2011,04,28,13,48,984.30
2011,04,28,13,49,979.30
2011,04,28,13,50,976.50
2011,04,28,13,51,972.40
2011,04,28,13,52,970.00
2011,04,28,13,53,969.20
2011,04,28,13,54,965.00
2011,04,28,13,55,963.00
2011,04,28,13,56,962.20
2011,04,28,13,57,960.00
2011,04,28,13,58,958.10
2011,04,28,13,59,956.00
2011,04,28,14,00,953.90
2011,04,28,14,01,957.20
2011,04,28,14,02,958.00
2011,04,28,14,03,932.40
2011,04,28,14,04,938.70
2011,04,28,14,05,933.60
2011,04,28,14,06,936.60
2011,04,28,14,07,941.40
2011,04,28,14,08,942.80
2011,04,28,14,09,944.70
2011,04,28,14,10,946.00
2011,04,28,14,11,942.40
2011,04,28,14,12,944.10
2011,04,28,14,13,945.50
2011,04,28,14,14,943.30
2011,04,28,14,15,941.10
2011,04,28,14,16,940.00
2011,04,28,14,17,938.00
2011,04,28,14,18,935.40
2011,04,28,14,19,938.60
2011,04,28,14,20,936.70
2011,04,28,14,21,931.60
2011,04,28,14,22,930.00
2011,04,28,14,23,933.80
2011,04,28,14,24,940.50
2011,04,28,14,25,947.80
2011,04,28,14,26,953.00
2011,04,28,14,27,961.30
2011,04,28,14,28,968.70
2011,04,28,14,29,975.80
2011,04,28,14,30,978.30
2011,04,28,14,31,983.30
2011,04,28,14,32,977.70
2011,04,28,14,33,966.90
2011,04,28,14,34,961.90
2011,04,28,14,35,955.70
2011,04,28,14,36,948.10
2011,04,28,14,37,944.00
2011,04,28,14,38,942.00
2011,04,28,14,39,944.40
2011,04,28,14,40,956.70
2011,04,28,14,41,984.00
2011,04,28,14,42,1005.00
2011,04,28,14,43,1005.00
2011,04,28,14,44,1042.90
2011,04,28,14,45,1054.90
2011,04,28,14,46,1048.30
2011,04,28,14,47,1031.00
2011,04,28,14,48,1008.50
2011,04,28,14,49,992.20
2011,04,28,14,50,991.00
2011,04,28,14,51,996.70
2011,04,28,14,52,1003.70
2011,04,28,14,53,1012.60
2011,04,28,14,54,1027.30
2011,04,28,14,55,1020.30
2011,04,28,14,56,1051.80
2011,04,28,14,57,1035.40
2011,04,28,14,58,1027.00
2011,04,28,14,59,1016.60
2011,04,28,15,00,1013.70
2011,04,28,15,01,1009.00
2011,04,28,15,02,994.20
2011,04,28,15,03,967.60
2011,04,28,15,04,938.20
2011,04,28,15,05,914.60
2011,04,28,15,06,899.90
2011,04,28,15,07,889.30
2011,04,28,15,08,881.90
2011,04,28,15,09,873.80
2011,04,28,15,10,870.40
2011,04,28,15,11,870.00
2011,04,28,15,12,866.60
2011,04,28,15,13,861.90
2011,04,28,15,14,857.30
2011,04,28,15,15,853.80
2011,04,28,15,16,851.00
2011,04,28,15,17,848.60
2011,04,28,15,18,846.30
2011,04,28,15,19,844.20
2011,04,28,15,20,843.80
2011,04,28,15,21,840.00
2011,04,28,15,22,840.00
2011,04,28,15,23,839.30
2011,04,28,15,24,838.00
2011,04,28,15,25,837.50
2011,04,28,15,26,834.40
2011,04,28,15,27,833.00
2011,04,28,15,28,828.50
2011,04,28,15,29,825.90
2011,04,28,15,30,824.40
2011,04,28,15,31,825.20
2011,04,28,15,32,822.20
2011,04,28,15,33,819.90
2011,04,28,15,34,817.20
2011,04,28,15,35,814.60
2011,04,28,15,36,812.30
2011,04,28,15,37,809.20
2011,04,28,15,38,805.20
2011,04,28,15,39,804.40
2011,04,28,15,40,801.30
2011,04,28,15,41,799.10
2011,04,28,15,42,796.40
2011,04,28,15,43,795.70
2011,04,28,15,44,795.20
2011,04,28,15,45,795.00
2011,04,28,15,46,792.80
2011,04,28,15,47,788.80
2011,04,28,15,48,787.40
2011,04,28,15,49,786.00
2011,04,28,15,50,785.00
2011,04,28,15,51,781.10
2011,04,28,15,52,779.00
2011,04,28,15,53,777.40
2011,04,28,15,54,777.00
2011,04,28,15,55,774.70
2011,04,28,15,56,772.60
2011,04,28,15,57,775.00
2011,04,28,15,58,774.20
2011,04,28,15,59,773.00
2011,04,28,16,00,773.00
2011,04,28,16,01,777.30
2011,04,28,16,02,781.70
2011,04,28,16,03,784.00
2011,04,28,16,04,784.00
2011,04,28,16,05,760.70
2011,04,28,16,06,700.00
2011,04,28,16,07,700.00
2011,04,28,16,08,700.00
2011,04,28,16,09,700.00
2011,04,28,16,10,835.80
2011,04,28,16,11,881.00
2011,04,28,16,12,881.00
2011,04,28,16,13,881.00
2011,04,28,16,14,881.00
2011,04,28,16,15,881.00
2011,04,28,16,16,841.50
2011,04,28,16,17,787.50
2011,04,28,16,18,768.90
2011,04,28,16,19,772.30
2011,04,28,16,20,768.00
2011,04,28,16,21,781.20
2011,04,28,16,22,775.80
2011,04,28,16,23,774.20
2011,04,28,16,24,761.30
2011,04,28,16,25,749.90
2011,04,28,16,26,708.10
2011,04,28,16,27,683.90
2011,04,28,16,28,692.70
2011,04,28,16,29,653.30
2011,04,28,16,30,655.30
2011,04,28,16,31,670.40
2011,04,28,16,32,668.20
2011,04,28,16,33,732.40
2011,04,28,16,34,740.30
2011,04,28,16,35,711.30
2011,04,28,16,36,745.20
2011,04,28,16,37,737.80
2011,04,28,16,38,654.30
2011,04,28,16,39,729.00
2011,04,28,16,40,729.00
2011,04,28,16,41,551.90
2011,04,28,16,42,270.70
2011,04,28,16,43,302.00
2011,04,28,16,44,290.40
2011,04,28,16,45,328.60
2011,04,28,16,46,362.90
2011,04,28,16,47,419.90
2011,04,28,16,48,464.70
2011,04,28,16,49,508.40
2011,04,28,16,50,581.20
2011,04,28,16,51,617.00
2011,04,28,16,52,548.80
2011,04,28,16,53,484.20
2011,04,28,16,54,475.00
2011,04,28,16,55,311.30
2011,04,28,16,56,282.30
2011,04,28,16,57,280.60
2011,04,28,16,58,324.20
2011,04,28,16,59,374.00
2011,04,28,17,00,440.90
2011,04,28,17,01,497.30
2011,04,28,17,02,504.00
2011,04,28,17,03,504.00
2011,04,28,17,04,542.40
2011,04,28,17,05,601.00
2011,04,28,17,06,658.80
2011,04,28,17,07,752.80
2011,04,28,17,08,749.10
2011,04,28,17,09,752.80
2011,04,28,17,10,751.90
2011,04,28,17,11,745.60
2011,04,28,17,12,737.80
2011,04,28,17,13,734.40
2011,04,28,17,14,729.10
2011,04,28,17,15,722.80